User: anonymous   Login
Location: Unspecified
(0.0000°N, 0.0000°E)
Time: 03:05:51
(UTC+00:00)
Language:

Explorer 7 - Orbit

View from above orbital plane
View from above orbital plane
View from above satellite
View from above satellite

Ground track
Ground track

The orbit data is extracted from the following two-line orbital elements,

1 00022U 59009A   15108.14404765  .00003501  00000-0  30130-3 0  9992
2 00022 050.2845 303.1254 0148328 259.6239 098.7959 14.91753728943134
Epoch (UTC): 18 April 2015 03:27:25
Eccentricity: 0.0148328
inclination: 50.2845°
perigee height: 489 km
apogee height: 696 km
right ascension of ascending node: 303.1254°
argument of perigee: 259.6239°
revolutions per day: 14.91753728
mean anomaly at epoch: 98.7959°
orbit number at epoch: 94313

The dashed part of the orbit path shows where the satellite is in the earth's shadow,  

DLR